{"data":{"norad_id":57400,"intl_designator":"2023-101B","name":"TIANMU-1 08","alt_names":[],"object_type":"PAYLOAD","status":"ACTIVE","operator":null,"country":"PRC","launch_date":"2023-07-20","launch_site_code":"JSC","launch_vehicle":null,"mission":null,"orbit_class":"UNKNOWN","rcs_meters":null,"size_class":null,"mass_kg":null,"dimensions":null,"purposes":["earth_obs"],"wikipedia_slug":null,"has_3d_model":false,"image_url":null,"decayed_at":null,"tle_current":{"epoch":"2026-05-24T13:58:35.815008Z","epoch_age_seconds":111137,"freshness":"FRESH","line1":"1 57400U 23101B   26144.58235897  .00006048  00000+0  21406-3 0  9990","line2":"2 57400  97.2597 195.5705 0003773 177.7343 182.3915 15.29496153158032","mean_motion":15.29496153,"eccentricity":0.0003773,"inclination_deg":97.2597,"raan_deg":195.5705,"arg_perigee_deg":177.7343,"mean_anomaly_deg":182.3915,"bstar":0.00021406,"rev_number":15803,"period_min":94.148651317334,"perigee_km":474.73087260962,"apogee_km":479.9039985267,"semimajor_km":6855.4544355682,"source":"CELESTRAK","updated_at":"2026-05-25T13:38:12.255313Z"}}}